Terminal Aerodrome Forecast
Issued by NWS Omaha/Valley, NE

Home | Current Version | Previous Version | Graphics & Text | Print | Product List | Glossary On
Versions: 1 2 3 4 5 6 7 8 9 10 11 12 13 14 15 16 17 18 19 20 21 22 23 24 25 26 27 28 29 30 31 32 33 34 35 36 37 38 39 40 41 42 43 44 45
000
FTUS43 KOAX 260523 AAA
TAFOFK
TAF AMD
KOFK 260523Z 2605/2706 33017G25KT P6SM OVC008
     FM260900 33017G25KT P6SM BKN010 OVC070
     FM261900 33015G23KT P6SM BKN025
     FM270000 34014KT P6SM SCT030 SCT100
     FM270200 33007KT P6SM SCT250=

USA.gov is the U.S. government's official web portal to all federal, state and local government web resources and services.